Year,Month,Day,Hour,Minute,Value (Times are PST for temperature in C)
2017,09,22,00,00,9.90
2017,09,22,00,01,9.90
2017,09,22,00,02,9.90
2017,09,22,00,03,9.90
2017,09,22,00,04,9.90
2017,09,22,00,05,9.90
2017,09,22,00,06,9.90
2017,09,22,00,07,9.90
2017,09,22,00,08,9.90
2017,09,22,00,09,9.80
2017,09,22,00,10,9.80
2017,09,22,00,11,9.80
2017,09,22,00,12,9.80
2017,09,22,00,13,9.80
2017,09,22,00,14,9.80
2017,09,22,00,15,9.80
2017,09,22,00,16,9.80
2017,09,22,00,17,9.80
2017,09,22,00,18,9.80
2017,09,22,00,19,9.80
2017,09,22,00,20,9.80
2017,09,22,00,21,9.80
2017,09,22,00,22,9.80
2017,09,22,00,23,9.80
2017,09,22,00,24,9.80
2017,09,22,00,25,9.80
2017,09,22,00,26,9.80
2017,09,22,00,27,9.80
2017,09,22,00,28,9.80
2017,09,22,00,29,9.70
2017,09,22,00,30,9.70
2017,09,22,00,31,9.70
2017,09,22,00,32,9.70
2017,09,22,00,33,9.70
2017,09,22,00,34,9.70
2017,09,22,00,35,9.60
2017,09,22,00,36,9.60
2017,09,22,00,37,9.60
2017,09,22,00,38,9.60
2017,09,22,00,39,9.60
2017,09,22,00,40,9.60
2017,09,22,00,41,9.50
2017,09,22,00,42,9.50
2017,09,22,00,43,9.50
2017,09,22,00,44,9.50
2017,09,22,00,45,9.50
2017,09,22,00,46,9.50
2017,09,22,00,47,9.50
2017,09,22,00,48,9.50
2017,09,22,00,49,9.50
2017,09,22,00,50,9.50
2017,09,22,00,51,9.50
2017,09,22,00,52,9.40
2017,09,22,00,53,9.40
2017,09,22,00,54,9.40
2017,09,22,00,55,9.40
2017,09,22,00,56,9.40
2017,09,22,00,57,9.40
2017,09,22,00,58,9.30
2017,09,22,00,59,9.30
2017,09,22,01,00,9.30
2017,09,22,01,01,9.30
2017,09,22,01,02,9.30
2017,09,22,01,03,9.30
2017,09,22,01,04,9.20
2017,09,22,01,05,9.20
2017,09,22,01,06,9.20
2017,09,22,01,07,9.20
2017,09,22,01,08,9.10
2017,09,22,01,09,9.10
2017,09,22,01,10,9.10
2017,09,22,01,11,9.10
2017,09,22,01,12,9.00
2017,09,22,01,13,9.00
2017,09,22,01,14,9.00
2017,09,22,01,15,8.90
2017,09,22,01,16,8.90
2017,09,22,01,17,8.90
2017,09,22,01,18,8.90
2017,09,22,01,19,8.90
2017,09,22,01,20,8.80
2017,09,22,01,21,8.80
2017,09,22,01,22,8.80
2017,09,22,01,23,8.80
2017,09,22,01,24,8.80
2017,09,22,01,25,8.80
2017,09,22,01,26,8.80
2017,09,22,01,27,8.80
2017,09,22,01,28,8.90
2017,09,22,01,29,8.90
2017,09,22,01,30,8.90
2017,09,22,01,31,8.90
2017,09,22,01,32,8.90
2017,09,22,01,33,8.90
2017,09,22,01,34,8.90
2017,09,22,01,35,8.90
2017,09,22,01,36,8.90
2017,09,22,01,37,8.90
2017,09,22,01,38,8.90
2017,09,22,01,39,8.90
2017,09,22,01,40,8.90
2017,09,22,01,41,8.90
2017,09,22,01,42,8.90
2017,09,22,01,43,8.90
2017,09,22,01,44,8.90
2017,09,22,01,45,9.00
2017,09,22,01,46,9.00
2017,09,22,01,47,9.10
2017,09,22,01,48,9.20
2017,09,22,01,49,9.30
2017,09,22,01,50,9.40
2017,09,22,01,51,9.50
2017,09,22,01,52,9.60
2017,09,22,01,53,9.80
2017,09,22,01,54,9.90
2017,09,22,01,55,10.00
2017,09,22,01,56,10.10
2017,09,22,01,57,10.20
2017,09,22,01,58,10.20
2017,09,22,01,59,10.30
2017,09,22,02,00,10.30
2017,09,22,02,01,10.30
2017,09,22,02,02,10.30
2017,09,22,02,03,10.30
2017,09,22,02,04,10.30
2017,09,22,02,05,10.20
2017,09,22,02,06,10.20
2017,09,22,02,07,10.10
2017,09,22,02,08,10.10
2017,09,22,02,09,10.00
2017,09,22,02,10,10.00
2017,09,22,02,11,9.90
2017,09,22,02,12,9.90
2017,09,22,02,13,9.80
2017,09,22,02,14,9.80
2017,09,22,02,15,9.70
2017,09,22,02,16,9.70
2017,09,22,02,17,9.60
2017,09,22,02,18,9.60
2017,09,22,02,19,9.50
2017,09,22,02,20,9.40
2017,09,22,02,21,9.40
2017,09,22,02,22,9.30
2017,09,22,02,23,9.20
2017,09,22,02,24,9.20
2017,09,22,02,25,9.20
2017,09,22,02,26,9.10
2017,09,22,02,27,9.10
2017,09,22,02,28,9.00
2017,09,22,02,29,9.00
2017,09,22,02,30,9.00
2017,09,22,02,31,8.90
2017,09,22,02,32,8.90
2017,09,22,02,33,8.90
2017,09,22,02,34,8.90
2017,09,22,02,35,8.90
2017,09,22,02,36,8.80
2017,09,22,02,37,8.80
2017,09,22,02,38,8.80
2017,09,22,02,39,8.70
2017,09,22,02,40,8.70
2017,09,22,02,41,8.70
2017,09,22,02,42,8.70
2017,09,22,02,43,8.60
2017,09,22,02,44,8.60
2017,09,22,02,45,8.50
2017,09,22,02,46,8.50
2017,09,22,02,47,8.50
2017,09,22,02,48,8.50
2017,09,22,02,49,8.50
2017,09,22,02,50,8.50
2017,09,22,02,51,8.60
2017,09,22,02,52,8.70
2017,09,22,02,53,8.80
2017,09,22,02,54,8.80
2017,09,22,02,55,8.90
2017,09,22,02,56,8.90
2017,09,22,02,57,8.90
2017,09,22,02,58,9.00
2017,09,22,02,59,9.20
2017,09,22,03,00,9.30
2017,09,22,03,01,9.50
2017,09,22,03,02,9.60
2017,09,22,03,03,9.70
2017,09,22,03,04,9.80
2017,09,22,03,05,9.90
2017,09,22,03,06,10.00
2017,09,22,03,07,10.10
2017,09,22,03,08,10.10
2017,09,22,03,09,10.20
2017,09,22,03,10,10.20
2017,09,22,03,11,10.20
2017,09,22,03,12,10.20
2017,09,22,03,13,10.20
2017,09,22,03,14,10.20
2017,09,22,03,15,10.20
2017,09,22,03,16,10.30
2017,09,22,03,17,10.30
2017,09,22,03,18,10.30
2017,09,22,03,19,10.40
2017,09,22,03,20,10.50
2017,09,22,03,21,10.60
2017,09,22,03,22,10.70
2017,09,22,03,23,10.70
2017,09,22,03,24,10.90
2017,09,22,03,25,11.00
2017,09,22,03,26,11.10
2017,09,22,03,27,11.20
2017,09,22,03,28,11.30
2017,09,22,03,29,11.30
2017,09,22,03,30,11.40
2017,09,22,03,31,11.50
2017,09,22,03,32,11.50
2017,09,22,03,33,11.60
2017,09,22,03,34,11.60
2017,09,22,03,35,11.60
2017,09,22,03,36,11.60
2017,09,22,03,37,11.60
2017,09,22,03,38,11.50
2017,09,22,03,39,11.40
2017,09,22,03,40,11.40
2017,09,22,03,41,11.30
2017,09,22,03,42,11.30
2017,09,22,03,43,11.20
2017,09,22,03,44,11.10
2017,09,22,03,45,11.00
2017,09,22,03,46,11.00
2017,09,22,03,47,10.90
2017,09,22,03,48,10.90
2017,09,22,03,49,10.80
2017,09,22,03,50,10.80
2017,09,22,03,51,10.70
2017,09,22,03,52,10.70
2017,09,22,03,53,10.60
2017,09,22,03,54,10.60
2017,09,22,03,55,10.60
2017,09,22,03,56,10.60
2017,09,22,03,57,10.60
2017,09,22,03,58,10.60
2017,09,22,03,59,10.60
2017,09,22,04,00,10.60
2017,09,22,04,01,10.60
2017,09,22,04,02,10.70
2017,09,22,04,03,10.70
2017,09,22,04,04,10.70
2017,09,22,04,05,10.70
2017,09,22,04,06,10.70
2017,09,22,04,07,10.70
2017,09,22,04,08,10.70
2017,09,22,04,09,10.70
2017,09,22,04,10,10.70
2017,09,22,04,11,10.70
2017,09,22,04,12,10.70
2017,09,22,04,13,10.70
2017,09,22,04,14,10.70
2017,09,22,04,15,10.70
2017,09,22,04,16,10.70
2017,09,22,04,17,10.70
2017,09,22,04,18,10.60
2017,09,22,04,19,10.60
2017,09,22,04,20,10.60
2017,09,22,04,21,10.60
2017,09,22,04,22,10.60
2017,09,22,04,23,10.50
2017,09,22,04,24,10.50
2017,09,22,04,25,10.40
2017,09,22,04,26,10.40
2017,09,22,04,27,10.40
2017,09,22,04,28,10.30
2017,09,22,04,29,10.20
2017,09,22,04,30,10.20
2017,09,22,04,31,10.20
2017,09,22,04,32,10.10
2017,09,22,04,33,10.10
2017,09,22,04,34,10.10
2017,09,22,04,35,10.10
2017,09,22,04,36,10.10
2017,09,22,04,37,10.10
2017,09,22,04,38,10.10
2017,09,22,04,39,10.20
2017,09,22,04,40,10.20
2017,09,22,04,41,10.30
2017,09,22,04,42,10.30
2017,09,22,04,43,10.30
2017,09,22,04,44,10.30
2017,09,22,04,45,10.30
2017,09,22,04,46,10.30
2017,09,22,04,47,10.30
2017,09,22,04,48,10.20
2017,09,22,04,49,10.10
2017,09,22,04,50,10.10
2017,09,22,04,51,10.00
2017,09,22,04,52,10.00
2017,09,22,04,53,10.00
2017,09,22,04,54,10.00
2017,09,22,04,55,10.10
2017,09,22,04,56,10.10
2017,09,22,04,57,10.20
2017,09,22,04,58,10.30
2017,09,22,04,59,10.40
2017,09,22,05,00,10.40
2017,09,22,05,01,10.50
2017,09,22,05,02,10.50
2017,09,22,05,03,10.50
2017,09,22,05,04,10.40
2017,09,22,05,05,10.40
2017,09,22,05,06,10.30
2017,09,22,05,07,10.20
2017,09,22,05,08,10.10
2017,09,22,05,09,10.00
2017,09,22,05,10,9.90
2017,09,22,05,11,9.80
2017,09,22,05,12,9.70
2017,09,22,05,13,9.60
2017,09,22,05,14,9.50
2017,09,22,05,15,9.40
2017,09,22,05,16,9.30
2017,09,22,05,17,9.30
2017,09,22,05,18,9.20
2017,09,22,05,19,9.10
2017,09,22,05,20,9.00
2017,09,22,05,21,9.00
2017,09,22,05,22,8.90
2017,09,22,05,23,8.90
2017,09,22,05,24,8.80
2017,09,22,05,25,8.80
2017,09,22,05,26,8.70
2017,09,22,05,27,8.70
2017,09,22,05,28,8.60
2017,09,22,05,29,8.60
2017,09,22,05,30,8.50
2017,09,22,05,31,8.50
2017,09,22,05,32,8.40
2017,09,22,05,33,8.30
2017,09,22,05,34,8.30
2017,09,22,05,35,8.30
2017,09,22,05,36,8.20
2017,09,22,05,37,8.20
2017,09,22,05,38,8.20
2017,09,22,05,39,8.10
2017,09,22,05,40,8.10
2017,09,22,05,41,8.00
2017,09,22,05,42,8.00
2017,09,22,05,43,7.90
2017,09,22,05,44,7.90
2017,09,22,05,45,7.90
2017,09,22,05,46,7.80
2017,09,22,05,47,7.80
2017,09,22,05,48,7.70
2017,09,22,05,49,7.70
2017,09,22,05,50,7.70
2017,09,22,05,51,7.70
2017,09,22,05,52,7.60
2017,09,22,05,53,7.60
2017,09,22,05,54,7.60
2017,09,22,05,55,7.50
2017,09,22,05,56,7.50
2017,09,22,05,57,7.50
2017,09,22,05,58,7.50
2017,09,22,05,59,7.40
2017,09,22,06,00,7.40
2017,09,22,06,01,7.40
2017,09,22,06,02,7.40
2017,09,22,06,03,7.30
2017,09,22,06,04,7.30
2017,09,22,06,05,7.30
2017,09,22,06,06,7.30
2017,09,22,06,07,7.30
2017,09,22,06,08,7.20
2017,09,22,06,09,7.20
2017,09,22,06,10,7.20
2017,09,22,06,11,7.20
2017,09,22,06,12,7.20
2017,09,22,06,13,7.10
2017,09,22,06,14,7.10
2017,09,22,06,15,7.10
2017,09,22,06,16,7.10
2017,09,22,06,17,7.10
2017,09,22,06,18,7.10
2017,09,22,06,19,7.20
2017,09,22,06,20,7.20
2017,09,22,06,21,7.20
2017,09,22,06,22,7.20
2017,09,22,06,23,7.20
2017,09,22,06,24,7.20
2017,09,22,06,25,7.20
2017,09,22,06,26,7.20
2017,09,22,06,27,7.20
2017,09,22,06,28,7.20
2017,09,22,06,29,7.20
2017,09,22,06,30,7.20
2017,09,22,06,31,7.10
2017,09,22,06,32,7.10
2017,09,22,06,33,7.10
2017,09,22,06,34,7.10
2017,09,22,06,35,7.10
2017,09,22,06,36,7.10
2017,09,22,06,37,7.10
2017,09,22,06,38,7.10
2017,09,22,06,39,7.10
2017,09,22,06,40,7.10
2017,09,22,06,41,7.10
2017,09,22,06,42,7.10
2017,09,22,06,43,7.10
2017,09,22,06,44,7.10
2017,09,22,06,45,7.10
2017,09,22,06,46,7.00
2017,09,22,06,47,7.00
2017,09,22,06,48,6.90
2017,09,22,06,49,6.90
2017,09,22,06,50,6.90
2017,09,22,06,51,6.80
2017,09,22,06,52,6.80
2017,09,22,06,53,6.80
2017,09,22,06,54,6.80
2017,09,22,06,55,6.70
2017,09,22,06,56,6.70
2017,09,22,06,57,6.70
2017,09,22,06,58,6.60
2017,09,22,06,59,6.60
2017,09,22,07,00,6.60
2017,09,22,07,01,6.60
2017,09,22,07,02,6.50
2017,09,22,07,03,6.50
2017,09,22,07,04,6.50
2017,09,22,07,05,6.50
2017,09,22,07,06,6.40
2017,09,22,07,07,6.40
2017,09,22,07,08,6.40
2017,09,22,07,09,6.40
2017,09,22,07,10,6.40
2017,09,22,07,11,6.40
2017,09,22,07,12,6.40
2017,09,22,07,13,6.40
2017,09,22,07,14,6.40
2017,09,22,07,15,6.40
2017,09,22,07,16,6.40
2017,09,22,07,17,6.40
2017,09,22,07,18,6.40
2017,09,22,07,19,6.40
2017,09,22,07,20,6.30
2017,09,22,07,21,6.30
2017,09,22,07,22,6.40
2017,09,22,07,23,6.40
2017,09,22,07,24,6.40
2017,09,22,07,25,6.40
2017,09,22,07,26,6.40
2017,09,22,07,27,6.40
2017,09,22,07,28,6.40
2017,09,22,07,29,6.40
2017,09,22,07,30,6.40
2017,09,22,07,31,6.40
2017,09,22,07,32,6.40
2017,09,22,07,33,6.40
2017,09,22,07,34,6.40
2017,09,22,07,35,6.40
2017,09,22,07,36,6.40
2017,09,22,07,37,6.40
2017,09,22,07,38,6.40
2017,09,22,07,39,6.40
2017,09,22,07,40,6.40
2017,09,22,07,41,6.40
2017,09,22,07,42,6.40
2017,09,22,07,43,6.40
2017,09,22,07,44,6.40
2017,09,22,07,45,6.40
2017,09,22,07,46,6.40
2017,09,22,07,47,6.40
2017,09,22,07,48,6.40
2017,09,22,07,49,6.40
2017,09,22,07,50,6.40
2017,09,22,07,51,6.50
2017,09,22,07,52,6.50
2017,09,22,07,53,6.60
2017,09,22,07,54,6.60
2017,09,22,07,55,6.60
2017,09,22,07,56,6.70
2017,09,22,07,57,6.70
2017,09,22,07,58,6.70
2017,09,22,07,59,6.80
2017,09,22,08,00,6.80
2017,09,22,08,01,6.80
2017,09,22,08,02,6.80
2017,09,22,08,03,6.90
2017,09,22,08,04,7.00
2017,09,22,08,05,7.00
2017,09,22,08,06,7.10
2017,09,22,08,07,7.10
2017,09,22,08,08,7.20
2017,09,22,08,09,7.30
2017,09,22,08,10,7.30
2017,09,22,08,11,7.40
2017,09,22,08,12,7.40
2017,09,22,08,13,7.50
2017,09,22,08,14,7.60
2017,09,22,08,15,7.60
2017,09,22,08,16,7.70
2017,09,22,08,17,7.80
2017,09,22,08,18,7.80
2017,09,22,08,19,7.90
2017,09,22,08,20,8.00
2017,09,22,08,21,8.10
2017,09,22,08,22,8.10
2017,09,22,08,23,8.20
2017,09,22,08,24,8.30
2017,09,22,08,25,8.30
2017,09,22,08,26,8.40
2017,09,22,08,27,8.50
2017,09,22,08,28,8.50
2017,09,22,08,29,8.60
2017,09,22,08,30,8.60
2017,09,22,08,31,8.70
2017,09,22,08,32,8.70
2017,09,22,08,33,8.70
2017,09,22,08,34,8.80
2017,09,22,08,35,8.80
2017,09,22,08,36,8.90
2017,09,22,08,37,8.90
2017,09,22,08,38,8.90
2017,09,22,08,39,9.00
2017,09,22,08,40,9.00
2017,09,22,08,41,9.10
2017,09,22,08,42,9.10
2017,09,22,08,43,9.10
2017,09,22,08,44,9.10
2017,09,22,08,45,9.20
2017,09,22,08,46,9.20
2017,09,22,08,47,9.30
2017,09,22,08,48,9.40
2017,09,22,08,49,9.50
2017,09,22,08,50,9.50
2017,09,22,08,51,9.60
2017,09,22,08,52,9.70
2017,09,22,08,53,9.80
2017,09,22,08,54,9.80
2017,09,22,08,55,9.90
2017,09,22,08,56,10.00
2017,09,22,08,57,10.10
2017,09,22,08,58,10.10
2017,09,22,08,59,10.20
2017,09,22,09,00,10.30
2017,09,22,09,01,10.40
2017,09,22,09,02,10.50
2017,09,22,09,03,10.60
2017,09,22,09,04,10.70
2017,09,22,09,05,10.80
2017,09,22,09,06,10.90
2017,09,22,09,07,11.00
2017,09,22,09,08,11.10
2017,09,22,09,09,11.20
2017,09,22,09,10,11.30
2017,09,22,09,11,11.30
2017,09,22,09,12,11.50
2017,09,22,09,13,11.50
2017,09,22,09,14,11.60
2017,09,22,09,15,11.60
2017,09,22,09,16,11.60
2017,09,22,09,17,11.60
2017,09,22,09,18,11.60
2017,09,22,09,19,11.70
2017,09,22,09,20,11.70
2017,09,22,09,21,11.70
2017,09,22,09,22,11.80
2017,09,22,09,23,11.80
2017,09,22,09,24,11.90
2017,09,22,09,25,11.90
2017,09,22,09,26,12.00
2017,09,22,09,27,12.10
2017,09,22,09,28,12.20
2017,09,22,09,29,12.20
2017,09,22,09,30,12.30
2017,09,22,09,31,12.40
2017,09,22,09,32,12.50
2017,09,22,09,33,12.50
2017,09,22,09,34,12.60
2017,09,22,09,35,12.60
2017,09,22,09,36,12.60
2017,09,22,09,37,12.70
2017,09,22,09,38,12.70
2017,09,22,09,39,12.70
2017,09,22,09,40,12.70
2017,09,22,09,41,12.80
2017,09,22,09,42,12.80
2017,09,22,09,43,12.90
2017,09,22,09,44,12.90
2017,09,22,09,45,13.00
2017,09,22,09,46,13.00
2017,09,22,09,47,13.10
2017,09,22,09,48,13.10
2017,09,22,09,49,13.20
2017,09,22,09,50,13.20
2017,09,22,09,51,13.20
2017,09,22,09,52,13.20
2017,09,22,09,53,13.20
2017,09,22,09,54,13.30
2017,09,22,09,55,13.30
2017,09,22,09,56,13.30
2017,09,22,09,57,13.30
2017,09,22,09,58,13.40
2017,09,22,09,59,13.40
2017,09,22,10,00,13.50
2017,09,22,10,01,13.50
2017,09,22,10,02,13.60
2017,09,22,10,03,13.60
2017,09,22,10,04,13.70
2017,09,22,10,05,13.80
2017,09,22,10,06,13.80
2017,09,22,10,07,13.90
2017,09,22,10,08,13.90
2017,09,22,10,09,14.00
2017,09,22,10,10,14.00
2017,09,22,10,11,14.10
2017,09,22,10,12,14.20
2017,09,22,10,13,14.30
2017,09,22,10,14,14.30
2017,09,22,10,15,14.40
2017,09,22,10,16,14.50
2017,09,22,10,17,14.60
2017,09,22,10,18,14.70
2017,09,22,10,19,14.80
2017,09,22,10,20,14.80
2017,09,22,10,21,14.90
2017,09,22,10,22,14.90
2017,09,22,10,23,15.00
2017,09,22,10,24,15.00
2017,09,22,10,25,15.00
2017,09,22,10,26,15.00
2017,09,22,10,27,14.90
2017,09,22,10,28,14.90
2017,09,22,10,29,14.80
2017,09,22,10,30,14.70
2017,09,22,10,31,14.60
2017,09,22,10,32,14.50
2017,09,22,10,33,14.50
2017,09,22,10,34,14.40
2017,09,22,10,35,14.30
2017,09,22,10,36,14.20
2017,09,22,10,37,14.10
2017,09,22,10,38,14.10
2017,09,22,10,39,14.00
2017,09,22,10,40,14.00
2017,09,22,10,41,13.90
2017,09,22,10,42,13.90
2017,09,22,10,43,13.90
2017,09,22,10,44,13.80
2017,09,22,10,45,13.80
2017,09,22,10,46,13.80
2017,09,22,10,47,13.80
2017,09,22,10,48,13.80
2017,09,22,10,49,13.80
2017,09,22,10,50,13.90
2017,09,22,10,51,13.90
2017,09,22,10,52,13.90
2017,09,22,10,53,13.90
2017,09,22,10,54,14.00
2017,09,22,10,55,14.00
2017,09,22,10,56,14.00
2017,09,22,10,57,14.10
2017,09,22,10,58,14.20
2017,09,22,10,59,14.20
2017,09,22,11,00,14.30
2017,09,22,11,01,14.40
2017,09,22,11,02,14.50
2017,09,22,11,03,14.70
2017,09,22,11,04,14.80
2017,09,22,11,05,14.80
2017,09,22,11,06,15.00
2017,09,22,11,07,15.10
2017,09,22,11,08,15.20
2017,09,22,11,09,15.20
2017,09,22,11,10,15.30
2017,09,22,11,11,15.40
2017,09,22,11,12,15.40
2017,09,22,11,13,15.50
2017,09,22,11,14,15.50
2017,09,22,11,15,15.60
2017,09,22,11,16,15.60
2017,09,22,11,17,15.70
2017,09,22,11,18,15.80
2017,09,22,11,19,15.80
2017,09,22,11,20,15.90
2017,09,22,11,21,15.90
2017,09,22,11,22,15.90
2017,09,22,11,23,16.00
2017,09,22,11,24,16.00
2017,09,22,11,25,16.10
2017,09,22,11,26,16.10
2017,09,22,11,27,16.10
2017,09,22,11,28,16.20
2017,09,22,11,29,16.20
2017,09,22,11,30,16.20
2017,09,22,11,31,16.10
2017,09,22,11,32,16.10
2017,09,22,11,33,16.10
2017,09,22,11,34,16.10
2017,09,22,11,35,16.10
2017,09,22,11,36,16.10
2017,09,22,11,37,16.10
2017,09,22,11,38,16.10
2017,09,22,11,39,16.10
2017,09,22,11,40,16.10
2017,09,22,11,41,16.10
2017,09,22,11,42,16.10
2017,09,22,11,43,16.10
2017,09,22,11,44,16.20
2017,09,22,11,45,16.20
2017,09,22,11,46,16.30
2017,09,22,11,47,16.30
2017,09,22,11,48,16.40
2017,09,22,11,49,16.40
2017,09,22,11,50,16.40
2017,09,22,11,51,16.40
2017,09,22,11,52,16.40
2017,09,22,11,53,16.30
2017,09,22,11,54,16.30
2017,09,22,11,55,16.30
2017,09,22,11,56,16.30
2017,09,22,11,57,16.30
2017,09,22,11,58,16.40
2017,09,22,11,59,16.40
2017,09,22,12,00,16.50
2017,09,22,12,01,16.50
2017,09,22,12,02,16.60
2017,09,22,12,03,16.70
2017,09,22,12,04,16.70
2017,09,22,12,05,16.70
2017,09,22,12,06,16.70
2017,09,22,12,07,16.70
2017,09,22,12,08,16.60
2017,09,22,12,09,16.50
2017,09,22,12,10,16.40
2017,09,22,12,11,16.30
2017,09,22,12,12,16.20
2017,09,22,12,13,16.20
2017,09,22,12,14,16.20
2017,09,22,12,15,16.20
2017,09,22,12,16,16.20
2017,09,22,12,17,16.20
2017,09,22,12,18,16.20
2017,09,22,12,19,16.20
2017,09,22,12,20,16.30
2017,09,22,12,21,16.20
2017,09,22,12,22,16.20
2017,09,22,12,23,16.20
2017,09,22,12,24,16.10
2017,09,22,12,25,16.10
2017,09,22,12,26,16.10
2017,09,22,12,27,16.10
2017,09,22,12,28,16.20
2017,09,22,12,29,16.20
2017,09,22,12,30,16.20
2017,09,22,12,31,16.20
2017,09,22,12,32,16.10
2017,09,22,12,33,16.10
2017,09,22,12,34,16.10
2017,09,22,12,35,16.20
2017,09,22,12,36,16.20
2017,09,22,12,37,16.20
2017,09,22,12,38,16.30
2017,09,22,12,39,16.30
2017,09,22,12,40,16.40
2017,09,22,12,41,16.40
2017,09,22,12,42,16.50
2017,09,22,12,43,16.50
2017,09,22,12,44,16.60
2017,09,22,12,45,16.60
2017,09,22,12,46,16.70
2017,09,22,12,47,16.80
2017,09,22,12,48,16.80
2017,09,22,12,49,16.80
2017,09,22,12,50,16.80
2017,09,22,12,51,16.80
2017,09,22,12,52,16.80
2017,09,22,12,53,16.80
2017,09,22,12,54,16.70
2017,09,22,12,55,16.60
2017,09,22,12,56,16.50
2017,09,22,12,57,16.40
2017,09,22,12,58,16.40
2017,09,22,12,59,16.30
2017,09,22,13,00,16.30
2017,09,22,13,01,16.40
2017,09,22,13,02,16.40
2017,09,22,13,03,16.50
2017,09,22,13,04,16.60
2017,09,22,13,05,16.60
2017,09,22,13,06,16.60
2017,09,22,13,07,16.60
2017,09,22,13,08,16.60
2017,09,22,13,09,16.50
2017,09,22,13,10,16.50
2017,09,22,13,11,16.50
2017,09,22,13,12,16.50
2017,09,22,13,13,16.50
2017,09,22,13,14,16.60
2017,09,22,13,15,16.70
2017,09,22,13,16,16.70
2017,09,22,13,17,16.80
2017,09,22,13,18,16.90
2017,09,22,13,19,16.90
2017,09,22,13,20,16.90
2017,09,22,13,21,16.90
2017,09,22,13,22,17.00
2017,09,22,13,23,16.90
2017,09,22,13,24,16.90
2017,09,22,13,25,16.80
2017,09,22,13,26,16.80
2017,09,22,13,27,16.80
2017,09,22,13,28,16.70
2017,09,22,13,29,16.70
2017,09,22,13,30,16.60
2017,09,22,13,31,16.70
2017,09,22,13,32,16.70
2017,09,22,13,33,16.70
2017,09,22,13,34,16.80
2017,09,22,13,35,16.80
2017,09,22,13,36,16.80
2017,09,22,13,37,16.80
2017,09,22,13,38,16.80
2017,09,22,13,39,16.80
2017,09,22,13,40,16.80
2017,09,22,13,41,16.80
2017,09,22,13,42,16.80
2017,09,22,13,43,16.80
2017,09,22,13,44,16.80
2017,09,22,13,45,16.80
2017,09,22,13,46,16.80
2017,09,22,13,47,16.90
2017,09,22,13,48,16.90
2017,09,22,13,49,16.90
2017,09,22,13,50,16.90
2017,09,22,13,51,16.90
2017,09,22,13,52,17.00
2017,09,22,13,53,17.00
2017,09,22,13,54,17.10
2017,09,22,13,55,17.20
2017,09,22,13,56,17.30
2017,09,22,13,57,17.40
2017,09,22,13,58,17.50
2017,09,22,13,59,17.60
2017,09,22,14,00,17.70
2017,09,22,14,01,17.70
2017,09,22,14,02,17.70
2017,09,22,14,03,17.70
2017,09,22,14,04,17.70
2017,09,22,14,05,17.70
2017,09,22,14,06,17.70
2017,09,22,14,07,17.60
2017,09,22,14,08,17.60
2017,09,22,14,09,17.60
2017,09,22,14,10,17.60
2017,09,22,14,11,17.60
2017,09,22,14,12,17.60
2017,09,22,14,13,17.60
2017,09,22,14,14,17.60
2017,09,22,14,15,17.60
2017,09,22,14,16,17.60
2017,09,22,14,17,17.60
2017,09,22,14,18,17.60
2017,09,22,14,19,17.60
2017,09,22,14,20,17.60
2017,09,22,14,21,17.60
2017,09,22,14,22,17.70
2017,09,22,14,23,17.70
2017,09,22,14,24,17.70
2017,09,22,14,25,17.60
2017,09,22,14,26,17.60
2017,09,22,14,27,17.60
2017,09,22,14,28,17.60
2017,09,22,14,29,17.60
2017,09,22,14,30,17.60
2017,09,22,14,31,17.70
2017,09,22,14,32,17.70
2017,09,22,14,33,17.70
2017,09,22,14,34,17.70
2017,09,22,14,35,17.80
2017,09,22,14,36,17.80
2017,09,22,14,37,17.80
2017,09,22,14,38,17.90
2017,09,22,14,39,17.90
2017,09,22,14,40,17.90
2017,09,22,14,41,18.00
2017,09,22,14,42,18.10
2017,09,22,14,43,18.10
2017,09,22,14,44,18.20
2017,09,22,14,45,18.30
2017,09,22,14,46,18.40
2017,09,22,14,47,18.40
2017,09,22,14,48,18.40
2017,09,22,14,49,18.50
2017,09,22,14,50,18.60
2017,09,22,14,51,18.70
2017,09,22,14,52,18.80
2017,09,22,14,53,18.80
2017,09,22,14,54,18.90
2017,09,22,14,55,18.90
2017,09,22,14,56,19.00
2017,09,22,14,57,19.10
2017,09,22,14,58,19.20
2017,09,22,14,59,19.20
2017,09,22,15,00,19.20
2017,09,22,15,01,19.20
2017,09,22,15,02,19.20
2017,09,22,15,03,19.20
2017,09,22,15,04,19.20
2017,09,22,15,05,19.20
2017,09,22,15,06,19.30
2017,09,22,15,07,19.30
2017,09,22,15,08,19.30
2017,09,22,15,09,19.30
2017,09,22,15,10,19.30
2017,09,22,15,11,19.30
2017,09,22,15,12,19.30
2017,09,22,15,13,19.20
2017,09,22,15,14,19.10
2017,09,22,15,15,19.10
2017,09,22,15,16,19.10
2017,09,22,15,17,19.10
2017,09,22,15,18,19.10
2017,09,22,15,19,19.10
2017,09,22,15,20,19.10
2017,09,22,15,21,19.10
2017,09,22,15,22,19.10
2017,09,22,15,23,19.10
2017,09,22,15,24,19.20
2017,09,22,15,25,19.20
2017,09,22,15,26,19.20
2017,09,22,15,27,19.20
2017,09,22,15,28,19.20
2017,09,22,15,29,19.20
2017,09,22,15,30,19.20
2017,09,22,15,31,19.10
2017,09,22,15,32,19.10
2017,09,22,15,33,19.10
2017,09,22,15,34,19.10
2017,09,22,15,35,19.10
2017,09,22,15,36,19.10
2017,09,22,15,37,19.10
2017,09,22,15,38,19.10
2017,09,22,15,39,19.10
2017,09,22,15,40,19.10
2017,09,22,15,41,19.10
2017,09,22,15,42,19.00
2017,09,22,15,43,19.00
2017,09,22,15,44,19.00
2017,09,22,15,45,18.90
2017,09,22,15,46,18.90
2017,09,22,15,47,18.90
2017,09,22,15,48,18.80
2017,09,22,15,49,18.70
2017,09,22,15,50,18.70
2017,09,22,15,51,18.60
2017,09,22,15,52,18.60
2017,09,22,15,53,18.50
2017,09,22,15,54,18.50
2017,09,22,15,55,18.40
2017,09,22,15,56,18.40
2017,09,22,15,57,18.40
2017,09,22,15,58,18.30
2017,09,22,15,59,18.30
2017,09,22,16,00,18.30
2017,09,22,16,01,18.20
2017,09,22,16,02,18.20
2017,09,22,16,03,18.20
2017,09,22,16,04,18.20
2017,09,22,16,05,18.20
2017,09,22,16,06,18.10
2017,09,22,16,07,18.10
2017,09,22,16,08,18.00
2017,09,22,16,09,18.00
2017,09,22,16,10,17.90
2017,09,22,16,11,17.80
2017,09,22,16,12,17.80
2017,09,22,16,13,17.70
2017,09,22,16,14,17.60
2017,09,22,16,15,17.60
2017,09,22,16,16,17.50
2017,09,22,16,17,17.40
2017,09,22,16,18,17.40
2017,09,22,16,19,17.30
2017,09,22,16,20,17.30
2017,09,22,16,21,17.30
2017,09,22,16,22,17.30
2017,09,22,16,23,17.20
2017,09,22,16,24,17.20
2017,09,22,16,25,17.20
2017,09,22,16,26,17.30
2017,09,22,16,27,17.30
2017,09,22,16,28,17.40
2017,09,22,16,29,17.50
2017,09,22,16,30,17.50
2017,09,22,16,31,17.60
2017,09,22,16,32,17.70
2017,09,22,16,33,17.80
2017,09,22,16,34,17.90
2017,09,22,16,35,18.00
2017,09,22,16,36,18.00
2017,09,22,16,37,18.10
2017,09,22,16,38,18.20
2017,09,22,16,39,18.30
2017,09,22,16,40,18.50
2017,09,22,16,41,18.60
2017,09,22,16,42,18.70
2017,09,22,16,43,18.80
2017,09,22,16,44,18.80
2017,09,22,16,45,18.90
2017,09,22,16,46,18.90
2017,09,22,16,47,19.00
2017,09,22,16,48,19.00
2017,09,22,16,49,19.10
2017,09,22,16,50,19.10
2017,09,22,16,51,19.10
2017,09,22,16,52,19.20
2017,09,22,16,53,19.20
2017,09,22,16,54,19.20
2017,09,22,16,55,19.20
2017,09,22,16,56,19.20
2017,09,22,16,57,19.20
2017,09,22,16,58,19.10
2017,09,22,16,59,19.10
2017,09,22,17,00,19.10
2017,09,22,17,01,19.10
2017,09,22,17,02,19.10
2017,09,22,17,03,19.10
2017,09,22,17,04,19.10
2017,09,22,17,05,19.00
2017,09,22,17,06,19.00
2017,09,22,17,07,19.00
2017,09,22,17,08,18.90
2017,09,22,17,09,18.90
2017,09,22,17,10,18.90
2017,09,22,17,11,18.90
2017,09,22,17,12,18.90
2017,09,22,17,13,18.90
2017,09,22,17,14,18.90
2017,09,22,17,15,18.80
2017,09,22,17,16,18.80
2017,09,22,17,17,18.80
2017,09,22,17,18,18.80
2017,09,22,17,19,18.80
2017,09,22,17,20,18.80
2017,09,22,17,21,18.80
2017,09,22,17,22,18.80
2017,09,22,17,23,18.80
2017,09,22,17,24,18.80
2017,09,22,17,25,18.80
2017,09,22,17,26,18.80
2017,09,22,17,27,18.80
2017,09,22,17,28,18.80
2017,09,22,17,29,18.80
2017,09,22,17,30,18.80
2017,09,22,17,31,18.80
2017,09,22,17,32,18.80
2017,09,22,17,33,18.80
2017,09,22,17,34,18.80
2017,09,22,17,35,18.70
2017,09,22,17,36,18.70